SES-21

Last updated on Thu Jul 03 2025 00:02:49 GMT+0000 (Coordinated Universal Time)

1 53961U 22123B 25183.40369186 .00000076 00000+0 00000+0 0 9991 2 53961 0.0414 29.5188 0000960 73.0480 192.5282 1.00268178 3707
UTC large
Height (km)
Speed (km/s)
/
Latitude / Longitude
Inclination (degrees)
Orbital Period (minutes)
Azimuth
Elevation
Range (km)
Doppler Factor

Next 0 passes for location: London (51.5072 / 0.1276)

Sorry there are no passes over London.